Location: Gwatt
(46.7204°N, 7.6223°E)
Time: 01:57:03
(UTC+00:00)

Courier 1B Rocket - Pass Details

Date: 21 January 2021
Orbit: 920 x 1202 km, 28.3° (Epoch: 05 March)

Event Time Altitude Azimuth Distance (km) Brightness Sun altitude
Rises 08:45:12 0° 232° (SW) 3,880 8.1 12.6°
Reaches altitude 10° 08:48:54 10° 214° (SW) 2,977 7.8 13.0°
Maximum altitude 08:53:30 18° 175° (S) 2,501 8.2 13.5°
Drops below altitude 10° 08:58:15 10° 136° (SE) 3,084 10.6 14.0°
Sets 09:02:11 0° 119° (ESE) 4,075 9.6 14.5°
